Weather Service Report


640 
ASUS45 KCYS 020510
RWRWY 

WYOMING REGIONAL WEATHER ROUNDUP
NATIONAL WEATHER SERVICE CHEYENNE WY
1100 PM MDT WED OCT 01 2014

NOTE:  "FAIR" INDICATES FEW OR NO CLOUDS BELOW 12,000 FEET
WITH NO SIGNIFICANT WEATHER AND/OR OBSTRUCTIONS TO VISIBILITY.

WYZ001-020600-
YELLOWSTONE NATIONAL PARK
  
CITY           SKY/WX    TMP DP  RH WIND       PRES   REMARKS
LK YELLOWSTONE   N/A     27  25  92 CALM      30.16F                  
W YELLOWSTONE  NOT AVBL                                               

$$
WYZ002>013-054>058-071-098>099-020600-
NORTHERN WYOMING
  
CITY           SKY/WX    TMP DP  RH WIND       PRES   REMARKS
JACKSON        MOCLDY    39  32  75 S7        30.16S WCI  34          
CODY           CLEAR     43  34  70 S5        30.03S                  
GREYBULL       PTCLDY    46  41  82 SE3       30.03S                  
WORLAND        PTCLDY    42  36  79 S7        30.04S                  
SHERIDAN       MOCLDY    36  31  82 CALM      30.01S                  
BUFFALO        CLEAR     39  32  76 SW8       30.04S WCI  33          
GILLETTE       CLEAR     41  37  86 SW10      30.02R                  
HULETT         FAIR      41  36  81 S6        30.01                   
NEWCASTLE      FAIR      39  39 100 N6        30.03  WCI  35          

$$
WYZ014>020-022>026-101>103-020600-
CENTRAL WYOMING
  
CITY           SKY/WX    TMP DP  RH WIND       PRES   REMARKS
BIG PINEY      PTCLDY    30  26  85 NW3       30.19R                  
PINEDALE       PTCLDY    32  28  86 W8        30.18S WCI  25          
DUBOIS         MOCLDY    36  25  64 W16G22    30.13R WCI  26          
LANDER         CLEAR     37  34  89 SW3       30.10S                  
RIVERTON       CLEAR     36  33  89 SW6       30.10F WCI  31          
CASPER         CLOUDY    38  36  92 SW8       30.09S WCI  32          
DOUGLAS        CLEAR     36  35  96 SW3       30.08R                  

$$
WYZ021-027>030-104>119-020600-
SOUTHERN WYOMING
  
CITY           SKY/WX    TMP DP  RH WIND       PRES   REMARKS
EVANSTON       PTCLDY    33  29  85 SW7       30.25R WCI  27          
KEMMERER       MOCLDY    32  32 100 W3        30.23R                  
FORT BRIDGER     N/A     36  33  88 W10       30.26R WCI  28          
ROCK SPRINGS   PTCLDY    36  29  75 W8        30.18R WCI  30          
DIXON          LGT RAIN  36  34  92 SW3       30.19S                  
RAWLINS        PTCLDY    34  31  88 W5        30.14R WCI  30          
SARATOGA       MOCLDY    36  32  87 SW9       30.14S WCI  29          
LARAMIE        MOCLDY    34  31  88 N3        30.10R                  
CHEYENNE       MOCLDY    40  36  86 N8        30.07S WCI  34          
TORRINGTON     CLEAR     41  39  93 W8        30.03R                  
PINE BLUFFS    MOCLDY    37  37 100 NW6       30.05R WCI  33          

$$

Return to Home page


Western Regional Climate Center, wrcc@dri.edu